Weather History for K4A6 - June, 2013

Change the Weather History Date:

Sunday, June 16, 2013

  Actual Average (KHSV) Record (KHSV)
Temperature  
Mean Temperature 76 °F 78 °F  
Max Temperature 87 °F 89 °F 103 °F (1936)
Min Temperature 64 °F 67 °F 47 °F (1917)
Degree Days  
Heating Degree Days 0 0  
Month to date heating degree days 0  
Since 1 June heating degree days 0  
Since 1 July heating degree days 3001  
Cooling Degree Days 10 13  
Month to date cooling degree days 182  
Year to date cooling degree days 445  
Since 1 June cooling degree days 182  
Growing Degree Days 26 (Base 50)    
Moisture  
Dew Point 67 °F    
Average Humidity 81    
Maximum Humidity 100    
Minimum Humidity 49    
Precipitation  
Precipitation 0.63 in 0.15 in 1.65 in (1963)
Month to date precipitation 2.26  
Year to date precipitation 26.63  
Snow  
Snow 0.00 in - - ()
Month to date snowfall  
Since 1 June snowfall  
Since 1 July snowfall  
Snow Depth -    
Sea Level Pressure  
Sea Level Pressure 30.08 in    
Wind  
Wind Speed 2 mph (SW)    
Max Wind Speed 14 mph    
Max Gust Speed 23 mph    
Visibility 9 miles    
Events Rain , Thunderstorm    
T = Trace of Precipitation, MM = Missing Value Source: NWS Daily Summary

Daily Weather History Graph

Daily Weather History Graph

Search for Another Location

Airport or City:

Trip Planner

Search our weather history database for the weather conditions in past years. The results will help you decide how hot, cold, wet, or windy it might be!

Date:

Astronomy

Jun. 16, 2013 Rise Set
Actual Time 5:30 AM CDT 7:59 PM CDT
Civil Twilight 5:01 AM CDT 8:28 PM CDT
Nautical Twilight 4:24 AM CDT 9:05 PM CDT
Astronomical Twilight 3:44 AM CDT 9:45 PM CDT
Moon 12:48 PM CDT (6/16) 12:19 AM CDT (6/16)
Length of Visible Light 15h 27m
Length of Day
14h 28m
Waxing Crescent, 50% of the Moon is Illuminated
Jun 16
Waxing Crescent
Jun 16
First Quarter
Jun 23
Full
Jun 29
Last Quarter
Jul 8
New

Hourly Weather History & Observations

Time (CDT) Temp. Heat Index Dew Point Humidity Pressure Visibility Wind Dir Wind Speed Gust Speed Precip Events Conditions
12:15 AM 68.0 °F - 66.2 °F 94% 30.10 in 10.0 mi Calm Calm - N/A   Partly Cloudy
12:35 AM 68.0 °F - 64.4 °F 88% 30.09 in 10.0 mi Calm Calm - N/A   Mostly Cloudy
12:55 AM 66.2 °F - 64.4 °F 94% 30.09 in 10.0 mi Calm Calm - N/A   Scattered Clouds
1:15 AM 66.2 °F - 64.4 °F 94% 30.09 in 10.0 mi Calm Calm - N/A   Scattered Clouds
1:35 AM 66.2 °F - 64.4 °F 94% 30.09 in 10.0 mi Calm Calm - N/A   Mostly Cloudy
1:55 AM 66.2 °F - 64.4 °F 94% 30.09 in 10.0 mi Calm Calm - N/A   Overcast
2:15 AM 66.2 °F - 64.4 °F 94% 30.08 in 10.0 mi Calm Calm - N/A   Overcast
2:35 AM 66.2 °F - 64.4 °F 94% 30.08 in 9.0 mi Calm Calm - N/A   Mostly Cloudy
2:55 AM 66.2 °F - 64.4 °F 94% 30.08 in 10.0 mi Calm Calm - N/A   Mostly Cloudy
3:15 AM 66.2 °F - 64.4 °F 94% 30.08 in 10.0 mi Calm Calm - N/A   Mostly Cloudy
3:35 AM 66.2 °F - 64.4 °F 94% 30.09 in 10.0 mi Calm Calm - N/A   Mostly Cloudy
3:55 AM 64.4 °F - 64.4 °F 100% 30.09 in 10.0 mi Calm Calm - N/A   Mostly Cloudy
4:15 AM 64.4 °F - 64.4 °F 100% 30.09 in 10.0 mi Calm Calm - N/A   Mostly Cloudy
4:35 AM 64.4 °F - 62.6 °F 94% 30.09 in 10.0 mi Calm Calm - N/A   Mostly Cloudy
4:55 AM 64.4 °F - 62.6 °F 94% 30.10 in 10.0 mi Calm Calm - N/A   Overcast
5:15 AM 64.4 °F - 62.6 °F 94% 30.11 in 10.0 mi Calm Calm - N/A   Overcast
5:35 AM 64.4 °F - 64.4 °F 100% 30.12 in 10.0 mi Calm Calm - N/A   Overcast
5:55 AM 66.2 °F - 64.4 °F 94% 30.12 in 10.0 mi Calm Calm - N/A   Mostly Cloudy
6:15 AM 64.4 °F - 64.4 °F 100% 30.12 in 9.0 mi Calm Calm - N/A   Mostly Cloudy
6:35 AM 66.2 °F - 64.4 °F 94% 30.12 in 10.0 mi Calm Calm - N/A   Mostly Cloudy
6:55 AM 66.2 °F - 64.4 °F 94% 30.13 in 10.0 mi Calm Calm - N/A   Scattered Clouds
7:15 AM 68.0 °F - 64.4 °F 88% 30.13 in 10.0 mi Calm Calm - N/A   Partly Cloudy
7:35 AM 71.6 °F - 64.4 °F 78% 30.13 in 10.0 mi NE 4.6 mph - N/A   Mostly Cloudy
7:55 AM 71.6 °F - 66.2 °F 83% 30.14 in 10.0 mi Calm Calm - N/A   Scattered Clouds
8:15 AM 71.6 °F - 66.2 °F 83% 30.14 in 10.0 mi NE 3.5 mph - N/A Rain Light Rain
8:35 AM 73.4 °F - 66.2 °F 78% 30.14 in 10.0 mi Calm Calm - N/A   Clear
8:55 AM 75.2 °F - 66.2 °F 73% 30.13 in 10.0 mi Calm Calm - N/A   Clear
9:15 AM 77.0 °F - 66.2 °F 69% 30.13 in 10.0 mi Calm Calm - N/A   Clear
9:35 AM 77.0 °F - 66.2 °F 69% 30.12 in 10.0 mi Calm Calm - N/A   Partly Cloudy
9:55 AM 80.6 °F 82.7 °F 66.2 °F 61% 30.12 in 10.0 mi Calm Calm - N/A   Partly Cloudy
10:15 AM 82.4 °F 84.6 °F 66.2 °F 58% 30.11 in 10.0 mi SW 4.6 mph - N/A   Partly Cloudy
10:35 AM 80.6 °F 82.3 °F 64.4 °F 58% 30.11 in 10.0 mi SW 3.5 mph - N/A   Mostly Cloudy
10:55 AM 82.4 °F 84.6 °F 66.2 °F 58% 30.10 in 10.0 mi SSW 5.8 mph - N/A   Mostly Cloudy
11:15 AM 82.4 °F 84.6 °F 66.2 °F 58% 30.10 in 10.0 mi SW 6.9 mph - N/A   Partly Cloudy
11:35 AM 84.2 °F 87.3 °F 68.0 °F 58% 30.09 in 10.0 mi SSW 10.4 mph 23.0 mph N/A   Scattered Clouds
11:55 AM 84.2 °F 87.3 °F 68.0 °F 58% 30.09 in 10.0 mi SW 10.4 mph 19.6 mph N/A   Partly Cloudy
12:15 PM 84.2 °F 88.4 °F 69.8 °F 62% 30.08 in 10.0 mi WSW 8.1 mph 18.4 mph N/A   Partly Cloudy
12:35 PM 84.2 °F 87.3 °F 68.0 °F 58% 30.08 in 10.0 mi WSW 10.4 mph 16.1 mph N/A   Partly Cloudy
12:55 PM 84.2 °F 88.4 °F 69.8 °F 62% 30.07 in 10.0 mi SW 9.2 mph 16.1 mph N/A   Partly Cloudy
1:15 PM 84.2 °F 87.3 °F 68.0 °F 58% 30.06 in 10.0 mi WSW 13.8 mph - N/A   Scattered Clouds
1:35 PM 86.0 °F 89.4 °F 68.0 °F 55% 30.05 in 10.0 mi SW 10.4 mph 19.6 mph N/A   Partly Cloudy
1:55 PM 86.0 °F 89.4 °F 68.0 °F 55% 30.04 in 10.0 mi SW 10.4 mph 17.3 mph N/A   Clear
2:15 PM 86.0 °F 89.4 °F 68.0 °F 55% 30.04 in 10.0 mi SSW 10.4 mph - N/A   Clear
2:35 PM 86.0 °F 89.4 °F 68.0 °F 55% 30.03 in 10.0 mi SSW 10.4 mph - N/A   Clear
2:55 PM 87.8 °F 90.4 °F 66.2 °F 49% 30.03 in 10.0 mi SW 11.5 mph 18.4 mph N/A   Clear
3:15 PM 86.0 °F 91.8 °F 71.6 °F 62% 30.03 in 10.0 mi South 10.4 mph - N/A   Clear
3:35 PM 84.2 °F 87.3 °F 68.0 °F 58% 30.03 in 10.0 mi South 10.4 mph 18.4 mph N/A   Clear
3:55 PM 84.2 °F 87.3 °F 68.0 °F 58% 30.02 in 10.0 mi SSW 6.9 mph - N/A   Clear
4:15 PM 86.0 °F 89.4 °F 68.0 °F 55% 30.01 in 10.0 mi SSW 9.2 mph - N/A   Clear
4:35 PM 86.0 °F 90.4 °F 69.8 °F 58% 30.01 in 10.0 mi SW 6.9 mph - N/A   Clear
4:55 PM 84.2 °F 88.4 °F 69.8 °F 62% 30.00 in 10.0 mi SW 4.6 mph - N/A   Partly Cloudy
5:15 PM 84.2 °F 88.4 °F 69.8 °F 62% 30.00 in 10.0 mi South 5.8 mph - N/A Thunderstorm Scattered Clouds
5:35 PM 77.0 °F - 73.4 °F 89% 30.04 in 3.0 mi WSW 12.7 mph 23.0 mph N/A Rain , Thunderstorm Light Thunderstorms and Rain
5:55 PM 73.4 °F - 71.6 °F 94% 30.04 in 3.0 mi NW 4.6 mph - 0.12 in Rain , Thunderstorm Light Rain
6:15 PM 73.4 °F - 71.6 °F 94% 30.04 in 1.2 mi NE 10.4 mph - 0.13 in Rain , Thunderstorm Rain
6:35 PM 73.4 °F - 71.6 °F 94% 30.06 in 3.0 mi South 10.4 mph - 0.17 in Rain , Thunderstorm Light Thunderstorms and Rain
6:55 PM 71.6 °F - 69.8 °F 94% 30.09 in 2.5 mi SW 8.1 mph - 0.22 in Rain , Thunderstorm Light Rain
7:15 PM 71.6 °F - 68.0 °F 88% 30.08 in 1.2 mi West 9.2 mph - 0.16 in Rain , Thunderstorm Rain
7:35 PM 69.8 °F - 68.0 °F 94% 30.07 in 3.0 mi Calm Calm - 0.24 in Rain Rain
7:55 PM 71.6 °F - 69.8 °F 94% 30.05 in 6.0 mi Calm Calm - 0.25 in Rain , Thunderstorm Light Rain
8:15 PM 71.6 °F - 69.8 °F 94% 30.05 in 8.0 mi South 3.5 mph - N/A Rain , Thunderstorm Light Rain
8:35 PM 71.6 °F - 69.8 °F 94% 30.05 in 3.0 mi South 4.6 mph - 0.04 in Rain Light Rain
8:55 PM 71.6 °F - 68.0 °F 88% 30.06 in 10.0 mi Calm Calm - 0.04 in   Overcast
9:15 PM 71.6 °F - 69.8 °F 94% 30.06 in 10.0 mi Calm Calm - N/A   Overcast
9:35 PM 71.6 °F - 68.0 °F 88% 30.06 in 10.0 mi Calm Calm - N/A Thunderstorm Mostly Cloudy
9:55 PM 71.6 °F - 68.0 °F 88% 30.06 in 9.0 mi Calm Calm - N/A   Mostly Cloudy
10:15 PM 71.6 °F - 69.8 °F 94% 30.06 in 10.0 mi NNW 3.5 mph - N/A   Overcast
10:35 PM 69.8 °F - 68.0 °F 94% 30.05 in 9.0 mi Calm Calm - N/A   Mostly Cloudy
10:55 PM 69.8 °F - 69.8 °F 100% 30.05 in 6.0 mi Calm Calm - N/A   Mostly Cloudy
11:15 PM 69.8 °F - 69.8 °F 100% 30.05 in 6.0 mi Calm Calm - N/A   Mostly Cloudy
11:35 PM 69.8 °F - 68.0 °F 94% 30.05 in 8.0 mi Calm Calm - N/A   Mostly Cloudy
11:55 PM 71.6 °F - 69.8 °F 94% 30.05 in 8.0 mi Calm Calm - N/A   Mostly Cloudy